AAL2615 KCLT-KRDU

Flight info

Callsign AAL2615
Flight time 0h 33m
Altitude 13000
Route LILLS3 LILLS ETBUY DMSTR2
Aircraft A21N/M-SDE2E3FGHIRWXY/LB1

Departure

Time 2026-05-06 23:37
Airport Charlotte Douglas International Airport (KCLT)

Arrival

Time 2026-05-07 00:10
Airport Raleigh-Durham International Airport (KRDU)
Time Latitude Longitude Altitude Speed Heading
2026-05-06 23:20 35.21960 -80.94562 723 ft 0 kts 101°
2026-05-06 23:27 35.21960 -80.94561 723 ft 0 kts 101°
2026-05-06 23:27 35.21962 -80.94574 723 ft 2 kts 100°
2026-05-06 23:28 35.21965 -80.94592 724 ft 2 kts 101°
2026-05-06 23:28 35.21968 -80.94610 724 ft 2 kts 117°
2026-05-06 23:28 35.21979 -80.94621 724 ft 2 kts 174°
2026-05-06 23:28 35.21989 -80.94620 724 ft 0 kts 202°
2026-05-06 23:29 35.21995 -80.94616 724 ft 0 kts 202°
2026-05-06 23:31 35.21970 -80.94628 724 ft 8 kts 201°
2026-05-06 23:31 35.21910 -80.94653 723 ft 10 kts 196°
2026-05-06 23:31 35.21833 -80.94675 722 ft 12 kts 192°
2026-05-06 23:32 35.21738 -80.94683 718 ft 15 kts 163°
2026-05-06 23:32 35.21629 -80.94634 715 ft 17 kts 140°
2026-05-06 23:32 35.21594 -80.94502 716 ft 16 kts 92°
2026-05-06 23:32 35.21621 -80.94381 718 ft 14 kts 57°
2026-05-06 23:33 35.21651 -80.94268 720 ft 13 kts 92°
2026-05-06 23:33 35.21655 -80.94162 722 ft 11 kts 64°
2026-05-06 23:33 35.21704 -80.94088 724 ft 10 kts 45°
2026-05-06 23:33 35.21757 -80.94022 727 ft 18 kts 46°
2026-05-06 23:34 35.21840 -80.93896 730 ft 17 kts 50°
2026-05-06 23:34 35.21920 -80.93793 732 ft 16 kts 45°
2026-05-06 23:34 35.22007 -80.93715 734 ft 14 kts 10°
2026-05-06 23:34 35.22103 -80.93720 736 ft 13 kts 357°
2026-05-06 23:35 35.22193 -80.93727 737 ft 13 kts 354°
2026-05-06 23:35 35.22286 -80.93737 737 ft 13 kts 356°
2026-05-06 23:35 35.22384 -80.93744 737 ft 14 kts 357°
2026-05-06 23:35 35.22480 -80.93739 737 ft 13 kts 37°
2026-05-06 23:36 35.22493 -80.93640 738 ft 11 kts 127°
2026-05-06 23:36 35.22414 -80.93611 738 ft 14 kts 177°
2026-05-06 23:36 35.22048 -80.93586 737 ft 93 kts 179°
2026-05-06 23:36 35.21156 -80.93539 741 ft 158 kts 178°
2026-05-06 23:37 35.19947 -80.93416 1106 ft 182 kts 176°
2026-05-06 23:37 35.18750 -80.93220 2104 ft 175 kts 176°
2026-05-06 23:37 35.17603 -80.92976 3033 ft 172 kts 174°
2026-05-06 23:37 35.16446 -80.92374 3576 ft 197 kts 147°
2026-05-06 23:38 35.15471 -80.91059 4074 ft 220 kts 134°
2026-05-06 23:38 35.14502 -80.89507 4542 ft 244 kts 130°
2026-05-06 23:38 35.13733 -80.87526 5110 ft 271 kts 111°
2026-05-06 23:38 35.13284 -80.85223 5694 ft 291 kts 106°
2026-05-06 23:39 35.12876 -80.82745 6457 ft 302 kts 105°
2026-05-06 23:39 35.12448 -80.80276 7348 ft 306 kts 105°
2026-05-06 23:39 35.11975 -80.77714 8231 ft 310 kts 106°
2026-05-06 23:39 35.11480 -80.75160 9070 ft 316 kts 105°
2026-05-06 23:40 35.10965 -80.72576 9936 ft 319 kts 106°
2026-05-06 23:40 35.10433 -80.69932 10666 ft 329 kts 106°
2026-05-06 23:40 35.09861 -80.67128 11142 ft 347 kts 106°
2026-05-06 23:40 35.09266 -80.64243 11576 ft 365 kts 106°
2026-05-06 23:41 35.08621 -80.61124 11999 ft 384 kts 107°
2026-05-06 23:41 35.07966 -80.57951 12528 ft 395 kts 106°
2026-05-06 23:41 35.07289 -80.54685 12878 ft 399 kts 107°
2026-05-06 23:41 35.06610 -80.51403 12987 ft 402 kts 107°
2026-05-06 23:42 35.05922 -80.48080 13001 ft 401 kts 107°
2026-05-06 23:42 35.05242 -80.44798 12982 ft 400 kts 106°
2026-05-06 23:42 35.04561 -80.41538 12986 ft 401 kts 106°
2026-05-06 23:42 35.03873 -80.38241 12971 ft 400 kts 106°
2026-05-06 23:43 35.03188 -80.34946 12963 ft 400 kts 107°
2026-05-06 23:43 35.02497 -80.31641 12972 ft 400 kts 107°
2026-05-06 23:43 35.01814 -80.28373 12969 ft 400 kts 107°
2026-05-06 23:43 35.01125 -80.25085 12938 ft 400 kts 107°
2026-05-06 23:44 35.00441 -80.21829 12934 ft 401 kts 107°
2026-05-06 23:44 34.99746 -80.18528 12924 ft 402 kts 107°
2026-05-06 23:44 34.99046 -80.15248 12917 ft 401 kts 108°
2026-05-06 23:44 34.98264 -80.12001 12946 ft 401 kts 109°
2026-05-06 23:45 34.97454 -80.08733 12957 ft 401 kts 109°
2026-05-06 23:45 34.96640 -80.05486 12960 ft 401 kts 110°
2026-05-06 23:45 34.95834 -80.02261 12960 ft 400 kts 109°
2026-05-06 23:45 34.95018 -79.99001 12966 ft 402 kts 109°
2026-05-06 23:46 34.94284 -79.95740 12961 ft 403 kts 102°
2026-05-06 23:46 34.94206 -79.92292 12963 ft 406 kts 83°
2026-05-06 23:46 34.94947 -79.89048 12965 ft 402 kts 64°
2026-05-06 23:46 34.96196 -79.85978 12974 ft 401 kts 57°
2026-05-06 23:47 34.97925 -79.83388 12998 ft 392 kts 38°
2026-05-06 23:47 35.00012 -79.81300 13010 ft 389 kts 32°
2026-05-06 23:47 35.02181 -79.79295 12978 ft 390 kts 32°
2026-05-06 23:47 35.04316 -79.77287 12979 ft 389 kts 33°
2026-05-06 23:48 35.06442 -79.75225 12970 ft 389 kts 33°
2026-05-06 23:48 35.08523 -79.73157 12969 ft 390 kts 34°
2026-05-06 23:48 35.10629 -79.71032 12962 ft 389 kts 34°
2026-05-06 23:48 35.12711 -79.68914 12965 ft 390 kts 34°
2026-05-06 23:49 35.14789 -79.66790 12958 ft 391 kts 34°
2026-05-06 23:49 35.16873 -79.64654 12952 ft 391 kts 34°
2026-05-06 23:49 35.18951 -79.62527 12953 ft 391 kts 34°
2026-05-06 23:49 35.21041 -79.60379 12971 ft 391 kts 34°
2026-05-06 23:50 35.23119 -79.58246 12932 ft 392 kts 34°
2026-05-06 23:50 35.27306 -79.53945 12977 ft 392 kts 35°
2026-05-06 23:50 35.29374 -79.51812 12977 ft 391 kts 34°
2026-05-06 23:51 35.31463 -79.49658 12963 ft 392 kts 34°
2026-05-06 23:51 35.33545 -79.47512 12977 ft 390 kts 34°
2026-05-06 23:51 35.35631 -79.45368 12974 ft 390 kts 34°
2026-05-06 23:51 35.37723 -79.43254 12962 ft 391 kts 34°
2026-05-06 23:52 35.39833 -79.41138 12962 ft 390 kts 33°
2026-05-06 23:52 35.41935 -79.39028 12959 ft 390 kts 33°
2026-05-06 23:52 35.44016 -79.36935 12964 ft 390 kts 33°
2026-05-06 23:52 35.46117 -79.34821 12950 ft 390 kts 34°
2026-05-06 23:53 35.48209 -79.32716 12944 ft 390 kts 34°
2026-05-06 23:53 35.50293 -79.30612 12945 ft 389 kts 34°
2026-05-06 23:53 35.52408 -79.28475 12943 ft 391 kts 34°
2026-05-06 23:53 35.54483 -79.26377 12931 ft 390 kts 34°
2026-05-06 23:54 35.56584 -79.24249 12929 ft 392 kts 34°
2026-05-06 23:54 35.58702 -79.22107 12932 ft 392 kts 34°
2026-05-06 23:54 35.60777 -79.20004 12914 ft 389 kts 34°
2026-05-06 23:54 35.62807 -79.17787 12656 ft 387 kts 39°
2026-05-06 23:55 35.64588 -79.15323 12281 ft 384 kts 47°
2026-05-06 23:55 35.66175 -79.12739 11887 ft 380 kts 50°
2026-05-06 23:55 35.67700 -79.10149 11502 ft 374 kts 50°
2026-05-06 23:55 35.69222 -79.07552 11177 ft 367 kts 50°
2026-05-06 23:56 35.70702 -79.05038 10867 ft 360 kts 50°
2026-05-06 23:56 35.72143 -79.02605 10575 ft 352 kts 50°
2026-05-06 23:56 35.73575 -79.00201 10287 ft 346 kts 50°
2026-05-06 23:56 35.74997 -78.97816 9955 ft 341 kts 49°
2026-05-06 23:57 35.76378 -78.95496 9623 ft 336 kts 50°
2026-05-06 23:57 35.77741 -78.93208 9278 ft 331 kts 50°
2026-05-06 23:57 35.79306 -78.91166 8922 ft 318 kts 28°
2026-05-06 23:57 35.81233 -78.90110 8645 ft 300 kts
2026-05-06 23:58 35.83256 -78.89496 8321 ft 294 kts
2026-05-06 23:58 35.85222 -78.88941 8019 ft 289 kts
2026-05-06 23:58 35.87163 -78.88370 7761 ft 284 kts
2026-05-06 23:58 35.89060 -78.87794 7517 ft 278 kts
2026-05-06 23:59 35.90910 -78.87218 7241 ft 273 kts
2026-05-06 23:59 35.92738 -78.86643 6966 ft 269 kts
2026-05-06 23:59 35.94503 -78.85876 6674 ft 273 kts 25°
2026-05-06 23:59 35.95990 -78.84383 6432 ft 272 kts 41°
2026-05-07 00:00 35.97294 -78.82733 6195 ft 268 kts 43°
2026-05-07 00:00 35.98573 -78.81065 6025 ft 259 kts 44°
2026-05-07 00:00 35.99755 -78.79508 5986 ft 242 kts 44°
2026-05-07 00:00 36.00516 -78.78502 5861 ft 234 kts 44°
2026-05-07 00:01 36.01900 -78.76662 5571 ft 211 kts 43°
2026-05-07 00:01 36.02871 -78.75369 5311 ft 196 kts 44°
2026-05-07 00:01 36.03769 -78.74174 5041 ft 183 kts 44°
2026-05-07 00:01 36.04607 -78.73066 4748 ft 172 kts 44°
2026-05-07 00:02 36.05412 -78.72009 4371 ft 168 kts 43°
2026-05-07 00:02 36.06211 -78.70974 3953 ft 167 kts 44°
2026-05-07 00:02 36.07009 -78.69955 3547 ft 166 kts 43°
2026-05-07 00:02 36.07817 -78.68936 3134 ft 165 kts 44°
2026-05-07 00:03 36.08487 -78.67827 2944 ft 162 kts 77°
2026-05-07 00:03 36.08408 -78.66508 2968 ft 151 kts 122°
2026-05-07 00:03 36.07926 -78.65379 2978 ft 150 kts 129°
2026-05-07 00:03 36.07388 -78.64267 2970 ft 148 kts 130°
2026-05-07 00:04 36.06850 -78.63186 2962 ft 149 kts 130°
2026-05-07 00:04 36.06236 -78.62203 2945 ft 139 kts 155°
2026-05-07 00:04 36.05369 -78.62049 2952 ft 125 kts 207°
2026-05-07 00:04 36.04587 -78.62600 3001 ft 133 kts 211°
2026-05-07 00:05 36.03730 -78.63086 2973 ft 134 kts 207°
2026-05-07 00:05 36.02874 -78.63542 2970 ft 134 kts 207°
2026-05-07 00:05 36.02025 -78.64002 2970 ft 134 kts 208°
2026-05-07 00:05 36.01162 -78.64481 2960 ft 134 kts 208°
2026-05-07 00:06 36.00328 -78.64992 2962 ft 134 kts 213°
2026-05-07 00:06 35.99547 -78.65617 2969 ft 134 kts 217°
2026-05-07 00:06 35.98815 -78.66329 2899 ft 135 kts 222°
2026-05-07 00:06 35.98116 -78.67096 2728 ft 134 kts 223°
2026-05-07 00:07 35.97434 -78.67887 2552 ft 134 kts 225°
2026-05-07 00:07 35.96769 -78.68687 2378 ft 133 kts 224°
2026-05-07 00:07 35.96109 -78.69496 2203 ft 133 kts 225°
2026-05-07 00:07 35.95458 -78.70300 2040 ft 132 kts 225°
2026-05-07 00:08 35.94815 -78.71093 1868 ft 132 kts 225°
2026-05-07 00:08 35.94165 -78.71894 1694 ft 131 kts 225°
2026-05-07 00:08 35.93515 -78.72697 1526 ft 131 kts 225°
2026-05-07 00:08 35.92875 -78.73489 1348 ft 130 kts 225°
2026-05-07 00:09 35.92229 -78.74285 1181 ft 130 kts 225°
2026-05-07 00:09 35.91591 -78.75075 1014 ft 130 kts 225°
2026-05-07 00:09 35.90956 -78.75859 846 ft 129 kts 225°
2026-05-07 00:09 35.90322 -78.76642 676 ft 129 kts 225°
2026-05-07 00:10 35.89686 -78.77427 510 ft 128 kts 225°
2026-05-07 00:10 35.89066 -78.78192 394 ft 119 kts 226°
2026-05-07 00:10 35.88597 -78.78777 397 ft 70 kts 225°
2026-05-07 00:10 35.88366 -78.79049 390 ft 20 kts 216°
2026-05-07 00:11 35.88284 -78.79067 390 ft 0 kts 166°
2026-05-07 00:11 35.88261 -78.79060 391 ft 5 kts 171°
2026-05-07 00:11 35.88217 -78.79069 391 ft 6 kts 204°
2026-05-07 00:12 35.88158 -78.79129 391 ft 16 kts 224°
2026-05-07 00:12 35.88073 -78.79230 388 ft 18 kts 223°
2026-05-07 00:12 35.87985 -78.79336 387 ft 12 kts 224°
2026-05-07 00:12 35.87980 -78.79343 386 ft 0 kts 221°
2026-05-07 00:14 35.87936 -78.79369 386 ft 17 kts 172°
2026-05-07 00:14 35.87922 -78.79352 387 ft 0 kts 97°
2026-05-07 00:14 35.87924 -78.79290 390 ft 5 kts 87°
2026-05-07 00:14 35.87916 -78.79256 391 ft 2 kts 123°
2026-05-07 00:15 35.87908 -78.79244 392 ft 0 kts 131°